Time,TemperatureF,DewpointF,PressureIn,WindDirection,WindDirectionDegrees,WindSpeedMPH,WindSpeedGustMPH,Humidity,HourlyPrecipIn,Conditions,Clouds,dailyrainin,SoftwareType,DateUTC
2013-02-13 00:00:00,40.3,29.5,29.91,NE,47,0.0,0.0,65,0.00,,,0.00,Wunderground v.1.15,2013-02-13 05:00:00,
2013-02-13 00:01:00,40.3,29.5,29.91,NE,47,0.0,0.0,65,0.00,,,0.00,Wunderground v.1.15,2013-02-13 05:01:00,
2013-02-13 00:02:00,40.3,29.5,29.91,NE,47,0.0,1.0,65,0.00,,,0.00,Wunderground v.1.15,2013-02-13 05:02:00,
2013-02-13 00:03:00,40.3,29.5,29.91,NE,47,0.0,1.0,65,0.00,,,0.00,Wunderground v.1.15,2013-02-13 05:03:00,
2013-02-13 00:08:00,40.2,29.4,29.91,NE,47,0.0,1.0,65,0.00,,,0.00,Wunderground v.1.15,2013-02-13 05:08:00,
2013-02-13 00:13:00,40.1,29.3,29.91,NE,54,1.0,6.0,65,0.00,,,0.00,Wunderground v.1.15,2013-02-13 05:13:00,
2013-02-13 00:18:00,39.9,29.5,29.91,NE,41,1.0,6.0,66,0.00,,,0.00,Wunderground v.1.15,2013-02-13 05:18:00,
2013-02-13 00:23:00,39.9,29.5,29.91,NE,34,1.0,7.0,66,0.00,,,0.00,Wunderground v.1.15,2013-02-13 05:23:00,
2013-02-13 00:28:00,39.8,29.4,29.91,NE,34,3.0,7.0,66,0.00,,,0.00,Wunderground v.1.15,2013-02-13 05:28:00,
2013-02-13 00:34:00,39.8,29.0,29.91,NE,54,4.0,7.0,65,0.00,,,0.00,Wunderground v.1.15,2013-02-13 05:34:00,
2013-02-13 00:40:00,39.6,28.4,29.91,NE,51,4.0,9.0,64,0.00,,,0.00,Wunderground v.1.15,2013-02-13 05:40:00,
2013-02-13 00:46:00,39.6,28.4,29.91,ENE,61,2.0,4.0,64,0.00,,,0.00,Wunderground v.1.15,2013-02-13 05:46:00,
2013-02-13 00:51:00,39.5,28.3,29.91,NE,40,2.0,4.0,64,0.00,,,0.00,Wunderground v.1.15,2013-02-13 05:51:00,
2013-02-13 00:57:00,39.5,28.3,29.91,NNE,20,2.0,4.0,64,0.00,,,0.00,Wunderground v.1.15,2013-02-13 05:57:00,
2013-02-13 01:02:00,39.3,28.1,29.91,NE,37,2.0,4.0,64,0.00,,,0.00,Wunderground v.1.15,2013-02-13 06:02:00,
2013-02-13 01:07:00,39.2,28.0,29.91,NE,44,2.0,4.0,64,0.00,,,0.00,Wunderground v.1.15,2013-02-13 06:07:00,
2013-02-13 01:12:00,39.1,27.9,29.91,NE,48,1.0,4.0,64,0.00,,,0.00,Wunderground v.1.15,2013-02-13 06:12:00,
2013-02-13 01:17:00,38.9,27.8,29.91,NE,55,2.0,7.0,64,0.00,,,0.00,Wunderground v.1.15,2013-02-13 06:17:00,
2013-02-13 01:22:00,38.8,27.7,29.91,NE,37,2.0,8.0,64,0.00,,,0.00,Wunderground v.1.15,2013-02-13 06:22:00,
2013-02-13 01:27:00,38.6,27.5,29.91,NNE,31,2.0,8.0,64,0.00,,,0.00,Wunderground v.1.15,2013-02-13 06:27:00,
2013-02-13 01:32:00,38.3,27.6,29.91,NE,55,2.0,4.0,65,0.00,,,0.00,Wunderground v.1.15,2013-02-13 06:32:00,
2013-02-13 01:37:00,38.2,27.5,29.91,ENE,58,2.0,7.0,65,0.00,,,0.00,Wunderground v.1.15,2013-02-13 06:37:00,
2013-02-13 01:43:00,38.0,27.3,29.91,ENE,58,1.0,2.0,65,0.00,,,0.00,Wunderground v.1.15,2013-02-13 06:43:00,
2013-02-13 01:48:00,37.9,27.2,29.90,ENE,58,0.0,2.0,65,0.00,,,0.00,Wunderground v.1.15,2013-02-13 06:48:00,
2013-02-13 01:53:00,37.8,27.1,29.90,ENE,58,0.0,0.0,65,0.00,,,0.00,Wunderground v.1.15,2013-02-13 06:53:00,
2013-02-13 01:58:00,37.5,26.8,29.90,NE,41,0.0,0.0,65,0.00,,,0.00,Wunderground v.1.15,2013-02-13 06:58:00,
2013-02-13 02:04:00,37.3,27.0,29.88,ENE,64,0.0,0.0,66,0.00,,,0.00,Wunderground v.1.15,2013-02-13 07:04:00,
2013-02-13 02:09:00,37.0,26.7,29.88,NE,55,0.0,0.0,66,0.00,,,0.00,Wunderground v.1.15,2013-02-13 07:09:00,
2013-02-13 02:14:00,36.9,26.6,29.88,NE,48,1.0,4.0,66,0.00,,,0.00,Wunderground v.1.15,2013-02-13 07:14:00,
2013-02-13 02:19:00,36.6,26.7,29.88,NE,48,1.0,4.0,67,0.00,,,0.00,Wunderground v.1.15,2013-02-13 07:19:00,
2013-02-13 02:25:00,36.5,26.6,29.88,NE,41,0.0,1.0,67,0.00,,,0.00,Wunderground v.1.15,2013-02-13 07:25:00,
2013-02-13 02:30:00,36.3,26.7,29.88,NNE,27,0.0,0.0,68,0.00,,,0.00,Wunderground v.1.15,2013-02-13 07:30:00,
2013-02-13 02:38:00,36.0,26.5,29.88,NE,55,1.0,1.0,68,0.00,,,0.00,Wunderground v.1.15,2013-02-13 07:38:00,
2013-02-13 02:43:00,35.9,26.4,29.88,NE,51,1.0,6.0,68,0.00,,,0.00,Wunderground v.1.15,2013-02-13 07:43:00,
2013-02-13 02:48:00,35.9,26.4,29.87,NE,44,1.0,2.0,68,0.00,,,0.00,Wunderground v.1.15,2013-02-13 07:48:00,
2013-02-13 02:53:00,35.8,26.3,29.87,NE,40,1.0,4.0,68,0.00,,,0.00,Wunderground v.1.15,2013-02-13 07:53:00,
2013-02-13 02:58:00,35.8,26.6,29.87,NE,40,1.0,1.0,69,0.00,,,0.00,Wunderground v.1.15,2013-02-13 07:58:00,
2013-02-13 03:04:00,35.8,26.6,29.86,NE,44,0.0,4.0,69,0.00,,,0.00,Wunderground v.1.15,2013-02-13 08:04:00,
2013-02-13 03:09:00,35.6,26.4,29.86,NNE,24,0.0,4.0,69,0.00,,,0.00,Wunderground v.1.15,2013-02-13 08:09:00,
2013-02-13 03:15:00,35.6,26.4,29.86,NE,37,0.0,1.0,69,0.00,,,0.00,Wunderground v.1.15,2013-02-13 08:15:00,
2013-02-13 03:20:00,35.5,26.3,29.86,NE,48,0.0,1.0,69,0.00,,,0.00,Wunderground v.1.15,2013-02-13 08:20:00,
2013-02-13 03:26:00,35.5,26.3,29.86,NE,34,1.0,6.0,69,0.00,,,0.00,Wunderground v.1.15,2013-02-13 08:26:00,
2013-02-13 03:31:00,35.5,26.3,29.85,NE,34,1.0,6.0,69,0.00,,,0.00,Wunderground v.1.15,2013-02-13 08:31:00,
2013-02-13 03:37:00,35.3,26.1,29.85,NE,34,0.0,1.0,69,0.00,,,0.00,Wunderground v.1.15,2013-02-13 08:37:00,
2013-02-13 03:42:00,35.3,26.1,29.85,NE,34,0.0,0.0,69,0.00,,,0.00,Wunderground v.1.15,2013-02-13 08:42:00,
2013-02-13 03:47:00,35.3,26.1,29.85,NE,34,0.0,0.0,69,0.00,,,0.00,Wunderground v.1.15,2013-02-13 08:47:00,
2013-02-13 03:52:00,35.2,26.0,29.85,NE,34,0.0,0.0,69,0.00,,,0.00,Wunderground v.1.15,2013-02-13 08:52:00,
2013-02-13 03:58:00,35.0,25.9,29.85,NE,34,0.0,0.0,69,0.00,,,0.00,Wunderground v.1.15,2013-02-13 08:58:00,
2013-02-13 04:03:00,34.9,25.8,29.84,NE,34,0.0,0.0,69,0.00,,,0.00,Wunderground v.1.15,2013-02-13 09:03:00,
2013-02-13 04:08:00,34.7,25.6,29.84,NE,34,0.0,0.0,69,0.00,,,0.00,Wunderground v.1.15,2013-02-13 09:08:00,
2013-02-13 04:14:00,34.6,25.5,29.84,NNE,31,0.0,0.0,69,0.00,,,0.00,Wunderground v.1.15,2013-02-13 09:14:00,
2013-02-13 04:19:00,34.3,25.2,29.84,NNE,31,0.0,1.0,69,0.00,,,0.00,Wunderground v.1.15,2013-02-13 09:19:00,
2013-02-13 04:24:00,34.1,25.0,29.84,NNE,31,0.0,0.0,69,0.00,,,0.00,Wunderground v.1.15,2013-02-13 09:24:00,
2013-02-13 04:30:00,34.0,25.2,29.85,NNE,31,0.0,0.0,70,0.00,,,0.00,Wunderground v.1.15,2013-02-13 09:30:00,
2013-02-13 04:37:00,33.7,25.0,29.85,NNE,31,0.0,0.0,70,0.00,,,0.00,Wunderground v.1.15,2013-02-13 09:37:00,
2013-02-13 04:43:00,33.5,24.8,29.85,NE,34,0.0,0.0,70,0.00,,,0.00,Wunderground v.1.15,2013-02-13 09:43:00,
2013-02-13 04:48:00,33.4,24.7,29.85,NE,34,0.0,0.0,70,0.00,,,0.00,Wunderground v.1.15,2013-02-13 09:48:00,
2013-02-13 04:54:00,33.2,24.5,29.85,ENE,65,0.0,2.0,70,0.00,,,0.00,Wunderground v.1.15,2013-02-13 09:54:00,
2013-02-13 04:59:00,33.1,24.7,29.86,NE,47,0.0,0.0,71,0.00,,,0.00,Wunderground v.1.15,2013-02-13 09:59:00,
2013-02-13 05:05:00,32.9,24.5,29.86,NE,47,0.0,0.0,71,0.00,,,0.00,Wunderground v.1.15,2013-02-13 10:05:00,
2013-02-13 05:12:00,32.8,24.8,29.86,NE,47,0.0,0.0,72,0.00,,,0.00,Wunderground v.1.15,2013-02-13 10:12:00,
2013-02-13 05:18:00,32.7,25.0,29.85,NE,47,0.0,0.0,73,0.00,,,0.00,Wunderground v.1.15,2013-02-13 10:18:00,
2013-02-13 05:23:00,32.7,25.0,29.85,NE,47,0.0,0.0,73,0.00,,,0.00,Wunderground v.1.15,2013-02-13 10:23:00,
2013-02-13 05:28:00,32.5,24.8,29.85,NE,47,0.0,0.0,73,0.00,,,0.00,Wunderground v.1.15,2013-02-13 10:28:00,
2013-02-13 05:33:00,32.4,24.7,29.85,NE,47,0.0,0.0,73,0.00,,,0.00,Wunderground v.1.15,2013-02-13 10:33:00,
2013-02-13 05:38:00,32.4,24.7,29.85,NE,47,0.0,0.0,73,0.00,,,0.00,Wunderground v.1.15,2013-02-13 10:38:00,
2013-02-13 05:43:00,32.2,24.5,29.85,NNE,31,0.0,2.0,73,0.00,,,0.00,Wunderground v.1.15,2013-02-13 10:43:00,
2013-02-13 05:48:00,32.1,24.7,29.85,NE,34,1.0,2.0,74,0.00,,,0.00,Wunderground v.1.15,2013-02-13 10:48:00,
2013-02-13 05:54:00,32.1,24.7,29.85,NE,34,0.0,0.0,74,0.00,,,0.00,Wunderground v.1.15,2013-02-13 10:54:00,
2013-02-13 05:59:00,32.1,25.1,29.85,NE,34,0.0,0.0,75,0.00,,,0.00,Wunderground v.1.15,2013-02-13 10:59:00,
2013-02-13 06:04:00,32.1,25.4,29.85,NE,34,0.0,0.0,76,0.00,,,0.00,Wunderground v.1.15,2013-02-13 11:04:00,
2013-02-13 06:10:00,32.2,25.5,29.85,NNE,16,0.0,0.0,76,0.00,,,0.00,Wunderground v.1.15,2013-02-13 11:10:00,
2013-02-13 06:15:00,32.2,25.8,29.84,North,10,0.0,4.0,77,0.00,,,0.00,Wunderground v.1.15,2013-02-13 11:15:00,
2013-02-13 06:20:00,32.4,26.0,29.84,NE,48,0.0,7.0,77,0.00,,,0.00,Wunderground v.1.15,2013-02-13 11:20:00,
2013-02-13 06:25:00,32.5,26.1,29.84,NNE,24,0.0,7.0,77,0.00,,,0.00,Wunderground v.1.15,2013-02-13 11:25:00,
2013-02-13 06:30:00,32.8,26.7,29.84,NE,51,1.0,1.0,78,0.00,,,0.00,Wunderground v.1.15,2013-02-13 11:30:00,
2013-02-13 06:36:00,32.9,26.5,29.84,NE,37,1.0,4.0,77,0.00,,,0.00,Wunderground v.1.15,2013-02-13 11:36:00,
2013-02-13 06:41:00,33.2,26.8,29.84,North,3,2.0,6.0,77,0.00,,,0.00,Wunderground v.1.15,2013-02-13 11:41:00,
2013-02-13 06:48:00,33.5,27.1,29.83,NNE,31,2.0,2.0,77,0.00,,,0.00,Wunderground v.1.15,2013-02-13 11:48:00,
2013-02-13 06:53:00,33.7,26.9,29.83,NE,41,0.0,6.0,76,0.00,,,0.00,Wunderground v.1.15,2013-02-13 11:53:00,
2013-02-13 06:58:00,34.0,27.2,29.83,NE,44,1.0,1.0,76,0.00,,,0.00,Wunderground v.1.15,2013-02-13 11:58:00,
2013-02-13 07:03:00,34.1,27.0,29.83,ENE,71,1.0,1.0,75,0.00,,,0.00,Wunderground v.1.15,2013-02-13 12:03:00,
2013-02-13 07:09:00,34.4,27.0,29.83,NE,51,1.0,6.0,74,0.00,,,0.00,Wunderground v.1.15,2013-02-13 12:09:00,
2013-02-13 07:14:00,34.6,27.2,29.82,East,96,2.0,6.0,74,0.00,,,0.00,Wunderground v.1.15,2013-02-13 12:14:00,
2013-02-13 07:20:00,34.9,27.1,29.82,NE,34,2.0,2.0,73,0.00,,,0.00,Wunderground v.1.15,2013-02-13 12:20:00,
2013-02-13 07:25:00,34.9,27.1,29.82,ENE,62,1.0,2.0,73,0.00,,,0.00,Wunderground v.1.15,2013-02-13 12:25:00,
2013-02-13 07:30:00,35.0,26.9,29.82,ENE,64,2.0,11.0,72,0.00,,,0.00,Wunderground v.1.15,2013-02-13 12:30:00,
2013-02-13 07:35:00,35.2,26.7,29.82,ENE,64,2.0,11.0,71,0.00,,,0.00,Wunderground v.1.15,2013-02-13 12:35:00,
2013-02-13 07:40:00,35.3,26.8,29.82,East,85,1.0,11.0,71,0.00,,,0.00,Wunderground v.1.15,2013-02-13 12:40:00,
2013-02-13 07:45:00,35.5,27.0,29.84,ENE,72,0.0,1.0,71,0.00,,,0.00,Wunderground v.1.15,2013-02-13 12:45:00,
2013-02-13 07:52:00,35.6,26.8,29.84,SSE,157,0.0,0.0,70,0.00,,,0.00,Wunderground v.1.15,2013-02-13 12:52:00,
2013-02-13 07:58:00,35.8,27.0,29.84,ENE,65,0.0,4.0,70,0.00,,,0.00,Wunderground v.1.15,2013-02-13 12:58:00,
2013-02-13 08:03:00,35.9,27.1,29.86,NE,48,0.0,0.0,70,0.00,,,0.00,Wunderground v.1.15,2013-02-13 13:03:00,
2013-02-13 08:08:00,36.0,27.2,29.86,ENE,61,1.0,4.0,70,0.00,,,0.00,Wunderground v.1.15,2013-02-13 13:08:00,
2013-02-13 08:13:00,36.3,27.1,29.86,NE,47,2.0,7.0,69,0.00,,,0.00,Wunderground v.1.15,2013-02-13 13:13:00,
2013-02-13 08:18:00,36.5,27.3,29.84,NE,37,1.0,7.0,69,0.00,,,0.00,Wunderground v.1.15,2013-02-13 13:18:00,
2013-02-13 08:23:00,36.6,27.4,29.84,ENE,58,1.0,2.0,69,0.00,,,0.00,Wunderground v.1.15,2013-02-13 13:23:00,
2013-02-13 08:29:00,36.8,27.2,29.84,NE,41,1.0,7.0,68,0.00,,,0.00,Wunderground v.1.15,2013-02-13 13:29:00,
2013-02-13 08:34:00,37.0,27.1,29.84,East,89,1.0,6.0,67,0.00,,,0.00,Wunderground v.1.15,2013-02-13 13:34:00,
2013-02-13 08:39:00,37.0,27.1,29.84,ENE,61,1.0,6.0,67,0.00,,,0.00,Wunderground v.1.15,2013-02-13 13:39:00,
2013-02-13 08:44:00,37.2,27.2,29.84,NE,34,1.0,6.0,67,0.00,,,0.00,Wunderground v.1.15,2013-02-13 13:44:00,
2013-02-13 08:49:00,37.3,27.0,29.84,NE,47,1.0,6.0,66,0.00,,,0.00,Wunderground v.1.15,2013-02-13 13:49:00,
2013-02-13 08:55:00,37.5,27.2,29.84,NE,55,0.0,0.0,66,0.00,,,0.00,Wunderground v.1.15,2013-02-13 13:55:00,
2013-02-13 09:00:00,37.6,27.3,29.84,NE,47,0.0,0.0,66,0.00,,,0.00,Wunderground v.1.15,2013-02-13 14:00:00,
2013-02-13 09:06:00,37.8,27.5,29.84,ENE,62,2.0,7.0,66,0.00,,,0.00,Wunderground v.1.15,2013-02-13 14:06:00,
2013-02-13 09:11:00,38.2,27.8,29.84,ENE,64,3.0,7.0,66,0.00,,,0.00,Wunderground v.1.15,2013-02-13 14:11:00,
2013-02-13 09:17:00,38.5,27.7,29.82,ENE,65,2.0,7.0,65,0.00,,,0.00,Wunderground v.1.15,2013-02-13 14:17:00,
2013-02-13 09:22:00,38.8,27.7,29.82,ENE,64,3.0,6.0,64,0.00,,,0.00,Wunderground v.1.15,2013-02-13 14:22:00,
2013-02-13 09:28:00,38.8,28.0,29.82,NNE,31,3.0,6.0,65,0.00,,,0.00,Wunderground v.1.15,2013-02-13 14:28:00,
2013-02-13 09:34:00,38.9,27.8,29.82,ENE,61,2.0,9.0,64,0.00,,,0.00,Wunderground v.1.15,2013-02-13 14:34:00,
2013-02-13 09:39:00,39.1,27.6,29.82,NE,44,4.0,7.0,63,0.00,,,0.00,Wunderground v.1.15,2013-02-13 14:39:00,
2013-02-13 09:47:00,39.2,27.7,29.82,NE,55,4.0,4.0,63,0.00,,,0.00,Wunderground v.1.15,2013-02-13 14:47:00,
2013-02-13 09:52:00,39.2,27.7,29.82,ENE,64,3.0,4.0,63,0.00,,,0.00,Wunderground v.1.15,2013-02-13 14:52:00,
2013-02-13 09:57:00,39.3,27.7,29.82,ENE,72,1.0,1.0,63,0.00,,,0.00,Wunderground v.1.15,2013-02-13 14:57:00,
2013-02-13 10:02:00,39.3,28.1,29.82,NE,44,1.0,4.0,64,0.00,,,0.00,Wunderground v.1.15,2013-02-13 15:02:00,
2013-02-13 10:08:00,39.3,27.7,29.82,NE,47,1.0,1.0,63,0.00,,,0.00,Wunderground v.1.15,2013-02-13 15:08:00,
2013-02-13 10:13:00,39.3,27.7,29.82,NE,48,0.0,4.0,63,0.00,,,0.00,Wunderground v.1.15,2013-02-13 15:13:00,
2013-02-13 10:18:00,39.3,27.7,29.80,ENE,65,1.0,4.0,63,0.00,,,0.00,Wunderground v.1.15,2013-02-13 15:18:00,
2013-02-13 10:23:00,39.3,27.7,29.80,NE,34,1.0,6.0,63,0.00,,,0.00,Wunderground v.1.15,2013-02-13 15:23:00,
2013-02-13 10:29:00,39.3,28.1,29.80,ENE,65,1.0,6.0,64,0.00,,,0.00,Wunderground v.1.15,2013-02-13 15:29:00,
2013-02-13 10:34:00,39.3,27.7,29.80,NE,41,1.0,6.0,63,0.00,,,0.00,Wunderground v.1.15,2013-02-13 15:34:00,
2013-02-13 10:39:00,39.5,27.9,29.80,ENE,58,2.0,6.0,63,0.00,,,0.00,Wunderground v.1.15,2013-02-13 15:39:00,
2013-02-13 10:44:00,39.5,28.3,29.80,ENE,68,1.0,4.0,64,0.00,,,0.00,Wunderground v.1.15,2013-02-13 15:44:00,
2013-02-13 10:49:00,39.6,28.0,29.80,NE,55,0.0,4.0,63,0.00,,,0.00,Wunderground v.1.15,2013-02-13 15:49:00,
2013-02-13 10:55:00,39.9,28.3,29.80,ESE,120,1.0,1.0,63,0.00,,,0.00,Wunderground v.1.15,2013-02-13 15:55:00,
2013-02-13 11:00:00,40.6,29.4,29.80,NE,55,0.0,0.0,64,0.00,,,0.00,Wunderground v.1.15,2013-02-13 16:00:00,
2013-02-13 11:05:00,41.1,29.1,29.80,NE,55,0.0,0.0,62,0.00,,,0.00,Wunderground v.1.15,2013-02-13 16:05:00,
2013-02-13 11:10:00,41.6,29.1,29.80,NE,41,1.0,1.0,61,0.00,,,0.00,Wunderground v.1.15,2013-02-13 16:10:00,
2013-02-13 11:15:00,41.6,29.1,29.79,ENE,72,1.0,6.0,61,0.00,,,0.00,Wunderground v.1.15,2013-02-13 16:15:00,
2013-02-13 11:21:00,41.6,28.3,29.79,East,96,1.0,1.0,59,0.00,,,0.00,Wunderground v.1.15,2013-02-13 16:21:00,
2013-02-13 11:26:00,42.9,30.4,29.79,SE,124,1.0,1.0,61,0.00,,,0.00,Wunderground v.1.15,2013-02-13 16:26:00,
2013-02-13 11:31:00,43.5,29.7,29.77,SSE,157,0.0,6.0,58,0.00,,,0.00,Wunderground v.1.15,2013-02-13 16:31:00,
2013-02-13 11:36:00,43.6,29.4,29.77,ESE,103,1.0,6.0,57,0.00,,,0.00,Wunderground v.1.15,2013-02-13 16:36:00,
2013-02-13 11:43:00,43.6,29.8,29.77,NE,37,1.0,8.0,58,0.00,,,0.00,Wunderground v.1.15,2013-02-13 16:43:00,
2013-02-13 11:48:00,43.6,29.4,29.77,East,79,2.0,8.0,57,0.00,,,0.00,Wunderground v.1.15,2013-02-13 16:48:00,
2013-02-13 11:54:00,43.6,29.4,29.77,SE,145,2.0,2.0,57,0.00,,,0.00,Wunderground v.1.15,2013-02-13 16:54:00,
2013-02-13 11:59:00,43.6,28.9,29.77,ENE,71,2.0,2.0,56,0.00,,,0.00,Wunderground v.1.15,2013-02-13 16:59:00,
2013-02-13 12:04:00,43.6,28.9,29.74,NE,55,1.0,8.0,56,0.00,,,0.00,Wunderground v.1.15,2013-02-13 17:04:00,
2013-02-13 12:09:00,44.1,30.3,29.74,East,95,1.0,8.0,58,0.00,,,0.00,Wunderground v.1.15,2013-02-13 17:09:00,
2013-02-13 12:17:00,44.5,30.2,29.73,ESE,113,1.0,1.0,57,0.00,,,0.00,Wunderground v.1.15,2013-02-13 17:17:00,
2013-02-13 12:22:00,44.2,29.5,29.73,East,82,2.0,2.0,56,0.00,,,0.00,Wunderground v.1.15,2013-02-13 17:22:00,
2013-02-13 12:28:00,44.3,29.6,29.73,NE,48,2.0,2.0,56,0.00,,,0.00,Wunderground v.1.15,2013-02-13 17:28:00,
2013-02-13 12:33:00,44.8,30.5,29.73,NE,47,0.0,2.0,57,0.00,,,0.00,Wunderground v.1.15,2013-02-13 17:33:00,
2013-02-13 12:38:00,44.9,30.6,29.73,East,100,0.0,0.0,57,0.00,,,0.00,Wunderground v.1.15,2013-02-13 17:38:00,
2013-02-13 12:44:00,45.1,30.8,29.73,SE,143,0.0,1.0,57,0.00,,,0.00,Wunderground v.1.15,2013-02-13 17:44:00,
2013-02-13 12:49:00,45.2,30.9,29.71,ENE,78,0.0,0.0,57,0.00,,,0.00,Wunderground v.1.15,2013-02-13 17:49:00,
2013-02-13 12:55:00,45.7,31.3,29.71,ESE,102,0.0,1.0,57,0.00,,,0.00,Wunderground v.1.15,2013-02-13 17:55:00,
2013-02-13 13:00:00,45.4,31.0,29.70,SSE,150,0.0,0.0,57,0.00,,,0.00,Wunderground v.1.15,2013-02-13 18:00:00,
2013-02-13 13:06:00,45.1,30.8,29.70,SSE,150,0.0,6.0,57,0.00,,,0.00,Wunderground v.1.15,2013-02-13 18:06:00,
2013-02-13 13:13:00,45.2,30.9,29.70,SSE,147,0.0,0.0,57,0.00,,,0.00,Wunderground v.1.15,2013-02-13 18:13:00,
2013-02-13 13:18:00,45.8,31.4,29.69,ENE,61,0.0,0.0,57,0.00,,,0.00,Wunderground v.1.15,2013-02-13 18:18:00,
2013-02-13 13:24:00,46.1,31.3,29.69,SE,136,0.0,0.0,56,0.00,,,0.00,Wunderground v.1.15,2013-02-13 18:24:00,
2013-02-13 13:29:00,46.4,32.0,29.69,NE,40,0.0,0.0,57,0.00,,,0.00,Wunderground v.1.15,2013-02-13 18:29:00,
2013-02-13 13:35:00,46.4,31.5,29.68,South,171,0.0,1.0,56,0.00,,,0.00,Wunderground v.1.15,2013-02-13 18:35:00,
2013-02-13 13:40:00,46.2,31.4,29.68,East,79,0.0,0.0,56,0.00,,,0.00,Wunderground v.1.15,2013-02-13 18:40:00,
2013-02-13 13:45:00,46.2,31.4,29.68,East,79,0.0,0.0,56,0.00,,,0.00,Wunderground v.1.15,2013-02-13 18:45:00,
2013-02-13 13:51:00,46.2,31.4,29.68,East,79,0.0,0.0,56,0.00,,,0.00,Wunderground v.1.15,2013-02-13 18:51:00,
2013-02-13 13:56:00,46.2,31.8,29.68,ENE,69,0.0,1.0,57,0.00,,,0.00,Wunderground v.1.15,2013-02-13 18:56:00,
2013-02-13 14:01:00,46.2,31.8,29.66,NE,44,1.0,2.0,57,0.00,,,0.00,Wunderground v.1.15,2013-02-13 19:01:00,
2013-02-13 14:07:00,46.2,31.8,29.66,NNE,16,1.0,6.0,57,0.00,,,0.00,Wunderground v.1.15,2013-02-13 19:07:00,
2013-02-13 14:12:00,46.2,31.8,29.66,NE,47,1.0,1.0,57,0.00,,,0.00,Wunderground v.1.15,2013-02-13 19:12:00,
2013-02-13 14:17:00,46.2,31.8,29.66,NNE,24,2.0,4.0,57,0.00,,,0.00,Wunderground v.1.15,2013-02-13 19:17:00,
2013-02-13 14:22:00,46.1,31.7,29.66,ENE,58,1.0,1.0,57,0.00,,,0.00,Wunderground v.1.15,2013-02-13 19:22:00,
2013-02-13 14:27:00,46.1,31.7,29.66,NE,55,0.0,1.0,57,0.00,,,0.00,Wunderground v.1.15,2013-02-13 19:27:00,
2013-02-13 14:32:00,46.1,32.1,29.65,NE,51,0.0,0.0,58,0.00,,,0.00,Wunderground v.1.15,2013-02-13 19:32:00,
2013-02-13 14:37:00,46.1,32.1,29.65,NE,51,0.0,0.0,58,0.00,,,0.00,Wunderground v.1.15,2013-02-13 19:37:00,
2013-02-13 14:42:00,46.1,32.6,29.65,NE,51,0.0,0.0,59,0.00,,,0.00,Wunderground v.1.15,2013-02-13 19:42:00,
2013-02-13 14:48:00,46.1,33.0,29.64,NNE,31,1.0,8.0,60,0.00,,,0.00,Wunderground v.1.15,2013-02-13 19:48:00,
2013-02-13 14:53:00,46.0,33.3,29.64,ESE,103,3.0,3.0,61,0.00,,,0.00,Wunderground v.1.15,2013-02-13 19:53:00,
2013-02-13 14:58:00,46.0,33.7,29.64,ESE,103,2.0,3.0,62,0.00,,,0.00,Wunderground v.1.15,2013-02-13 19:58:00,
2013-02-13 15:04:00,45.7,34.2,29.63,ENE,62,1.0,6.0,64,0.00,,,0.00,Wunderground v.1.15,2013-02-13 20:04:00,
2013-02-13 15:09:00,45.4,34.3,29.63,NE,55,2.0,6.0,65,0.00,,,0.00,Wunderground v.1.15,2013-02-13 20:09:00,
2013-02-13 15:14:00,45.2,34.9,29.63,NE,55,1.0,1.0,67,0.00,,,0.00,Wunderground v.1.15,2013-02-13 20:14:00,
2013-02-13 15:19:00,44.9,35.0,29.62,NNE,27,0.0,1.0,68,0.00,,,0.00,Wunderground v.1.15,2013-02-13 20:19:00,
2013-02-13 15:25:00,44.6,34.7,29.62,ENE,58,1.0,4.0,68,0.00,,,0.00,Wunderground v.1.15,2013-02-13 20:25:00,
2013-02-13 15:30:00,44.3,34.8,29.63,NE,44,2.0,4.0,69,0.00,,,0.00,Wunderground v.1.15,2013-02-13 20:30:00,
2013-02-13 15:36:00,44.2,34.7,29.63,NE,44,1.0,1.0,69,0.00,,,0.00,Wunderground v.1.15,2013-02-13 20:36:00,
2013-02-13 15:41:00,44.1,34.9,29.63,NE,48,0.0,1.0,70,0.00,,,0.00,Wunderground v.1.15,2013-02-13 20:41:00,
2013-02-13 15:48:00,43.8,34.6,29.62,ENE,58,1.0,1.0,70,0.00,,,0.00,Wunderground v.1.15,2013-02-13 20:48:00,
2013-02-13 15:54:00,43.6,34.5,29.62,NE,48,1.0,2.0,70,0.00,,,0.00,Wunderground v.1.15,2013-02-13 20:54:00,
2013-02-13 16:01:00,43.5,34.7,29.63,NE,34,0.0,0.0,71,0.00,,,0.00,Wunderground v.1.15,2013-02-13 21:01:00,
2013-02-13 16:06:00,43.3,34.9,29.63,ENE,58,0.0,2.0,72,0.00,,,0.00,Wunderground v.1.15,2013-02-13 21:06:00,
2013-02-13 16:11:00,43.3,34.9,29.63,NE,41,2.0,7.0,72,0.00,,,0.00,Wunderground v.1.15,2013-02-13 21:11:00,
2013-02-13 16:17:00,43.2,35.1,29.62,NNE,24,2.0,7.0,73,0.00,,,0.00,Wunderground v.1.15,2013-02-13 21:17:00,
2013-02-13 16:22:00,43.2,35.5,29.62,NNE,24,1.0,1.0,74,0.00,,,0.00,Wunderground v.1.15,2013-02-13 21:22:00,
2013-02-13 16:28:00,43.1,36.0,29.62,ENE,65,1.0,6.0,76,0.00,,,0.01,Wunderground v.1.15,2013-02-13 21:28:00,
2013-02-13 16:34:00,42.8,36.1,29.62,NE,37,1.0,1.0,77,0.00,,,0.01,Wunderground v.1.15,2013-02-13 21:34:00,
2013-02-13 16:40:00,42.6,36.5,29.62,NE,37,0.0,1.0,79,0.00,,,0.01,Wunderground v.1.15,2013-02-13 21:40:00,
2013-02-13 16:46:00,42.5,36.4,29.63,NE,37,0.0,0.0,79,0.00,,,0.01,Wunderground v.1.15,2013-02-13 21:46:00,
2013-02-13 16:51:00,42.3,36.6,29.63,NE,37,0.0,0.0,80,0.00,,,0.01,Wunderground v.1.15,2013-02-13 21:51:00,
2013-02-13 16:57:00,42.1,36.4,29.63,NE,37,0.0,0.0,80,0.00,,,0.02,Wunderground v.1.15,2013-02-13 21:57:00,
2013-02-13 17:02:00,41.9,36.5,29.63,NNE,31,0.0,0.0,81,0.17,,,0.04,Wunderground v.1.15,2013-02-13 22:02:00,
2013-02-13 17:08:00,41.8,36.7,29.63,NNE,17,0.0,2.0,82,0.12,,,0.04,Wunderground v.1.15,2013-02-13 22:08:00,
2013-02-13 17:13:00,41.6,36.5,29.63,NNE,17,1.0,6.0,82,0.10,,,0.05,Wunderground v.1.15,2013-02-13 22:13:00,
2013-02-13 17:18:00,41.3,36.5,29.64,NNE,31,1.0,6.0,83,0.10,,,0.06,Wunderground v.1.15,2013-02-13 22:18:00,
2013-02-13 17:23:00,41.2,36.4,29.64,NNE,31,1.0,1.0,83,0.11,,,0.07,Wunderground v.1.15,2013-02-13 22:23:00,
2013-02-13 17:28:00,40.9,36.1,29.64,NNE,23,0.0,2.0,83,0.15,,,0.09,Wunderground v.1.15,2013-02-13 22:28:00,
2013-02-13 17:33:00,40.6,36.1,29.64,NE,40,2.0,6.0,84,0.15,,,0.10,Wunderground v.1.15,2013-02-13 22:33:00,
2013-02-13 17:39:00,40.3,35.8,29.64,NNE,31,3.0,6.0,84,0.09,,,0.11,Wunderground v.1.15,2013-02-13 22:39:00,
2013-02-13 17:44:00,40.2,36.1,29.64,NE,40,2.0,2.0,85,0.09,,,0.11,Wunderground v.1.15,2013-02-13 22:44:00,
2013-02-13 17:49:00,39.9,35.8,29.63,North,0,2.0,4.0,85,0.05,,,0.11,Wunderground v.1.15,2013-02-13 22:49:00,
2013-02-13 17:54:00,39.8,36.0,29.63,North,0,1.0,1.0,86,0.04,,,0.12,Wunderground v.1.15,2013-02-13 22:54:00,
2013-02-13 17:59:00,39.6,35.8,29.63,NNE,31,1.0,6.0,86,0.04,,,0.12,Wunderground v.1.15,2013-02-13 22:59:00,
2013-02-13 18:04:00,39.3,35.8,29.63,North,0,1.0,1.0,87,0.06,,,0.13,Wunderground v.1.15,2013-02-13 23:04:00,
2013-02-13 18:09:00,39.2,35.7,29.63,North,0,1.0,4.0,87,0.06,,,0.13,Wunderground v.1.15,2013-02-13 23:09:00,
2013-02-13 18:15:00,38.9,35.4,29.64,NNE,17,1.0,1.0,87,0.05,,,0.13,Wunderground v.1.15,2013-02-13 23:15:00,
2013-02-13 18:20:00,38.8,35.6,29.64,North,6,0.0,0.0,88,0.04,,,0.14,Wunderground v.1.15,2013-02-13 23:20:00,
2013-02-13 18:25:00,38.6,35.4,29.64,North,6,1.0,2.0,88,0.04,,,0.14,Wunderground v.1.15,2013-02-13 23:25:00,
2013-02-13 18:30:00,38.5,35.3,29.64,NE,34,1.0,1.0,88,0.04,,,0.14,Wunderground v.1.15,2013-02-13 23:30:00,
2013-02-13 18:36:00,38.3,35.3,29.64,North,356,1.0,1.0,89,0.04,,,0.15,Wunderground v.1.15,2013-02-13 23:36:00,
2013-02-13 18:41:00,38.0,35.0,29.64,NNE,27,2.0,9.0,89,0.04,,,0.15,Wunderground v.1.15,2013-02-13 23:41:00,
2013-02-13 18:46:00,37.8,34.8,29.64,NNE,31,4.0,9.0,89,0.04,,,0.15,Wunderground v.1.15,2013-02-13 23:46:00,
2013-02-13 18:51:00,37.5,34.6,29.64,NNE,30,4.0,7.0,89,0.00,,,0.15,Wunderground v.1.15,2013-02-13 23:51:00,
2013-02-13 18:56:00,37.3,34.4,29.64,North,0,3.0,7.0,89,0.00,,,0.16,Wunderground v.1.15,2013-02-13 23:56:00,
2013-02-13 19:01:00,37.0,34.3,29.64,NNE,17,2.0,3.0,90,0.00,,,0.16,Wunderground v.1.15,2013-02-14 00:01:00,
2013-02-13 19:07:00,36.9,34.2,29.64,NE,34,2.0,4.0,90,0.00,,,0.16,Wunderground v.1.15,2013-02-14 00:07:00,
2013-02-13 19:12:00,36.8,34.1,29.64,NNE,20,2.0,9.0,90,0.00,,,0.16,Wunderground v.1.15,2013-02-14 00:12:00,
2013-02-13 19:17:00,36.8,34.4,29.65,North,0,1.0,9.0,91,0.00,,,0.17,Wunderground v.1.15,2013-02-14 00:17:00,
2013-02-13 19:23:00,36.6,34.2,29.65,North,3,1.0,1.0,91,0.00,,,0.17,Wunderground v.1.15,2013-02-14 00:23:00,
2013-02-13 19:28:00,36.6,34.2,29.65,NNE,17,0.0,1.0,91,0.00,,,0.17,Wunderground v.1.15,2013-02-14 00:28:00,
2013-02-13 19:33:00,36.5,34.1,29.66,NNE,17,1.0,7.0,91,0.04,,,0.18,Wunderground v.1.15,2013-02-14 00:33:00,
2013-02-13 19:38:00,36.5,34.1,29.66,North,3,2.0,7.0,91,0.04,,,0.18,Wunderground v.1.15,2013-02-14 00:38:00,
2013-02-13 19:43:00,36.3,34.2,29.66,North,10,1.0,1.0,92,0.04,,,0.18,Wunderground v.1.15,2013-02-14 00:43:00,
2013-02-13 19:48:00,36.3,34.2,29.67,NNE,13,0.0,1.0,92,0.04,,,0.19,Wunderground v.1.15,2013-02-14 00:48:00,
2013-02-13 19:53:00,36.2,34.1,29.67,NNW,347,0.0,2.0,92,0.04,,,0.19,Wunderground v.1.15,2013-02-14 00:53:00,
2013-02-13 19:59:00,36.0,33.9,29.67,NNE,20,1.0,4.0,92,0.05,,,0.20,Wunderground v.1.15,2013-02-14 00:59:00,
2013-02-13 20:04:00,35.9,33.8,29.67,NNE,20,1.0,1.0,92,0.08,,,0.21,Wunderground v.1.15,2013-02-14 01:04:00,
2013-02-13 20:09:00,35.8,33.7,29.67,North,0,0.0,1.0,92,0.08,,,0.21,Wunderground v.1.15,2013-02-14 01:09:00,
2013-02-13 20:14:00,35.6,33.5,29.67,North,6,0.0,0.0,92,0.05,,,0.21,Wunderground v.1.15,2013-02-14 01:14:00,
2013-02-13 20:19:00,35.5,33.4,29.67,North,3,0.0,0.0,92,0.04,,,0.21,Wunderground v.1.15,2013-02-14 01:19:00,
2013-02-13 20:24:00,35.3,33.2,29.67,North,0,0.0,0.0,92,0.00,,,0.21,Wunderground v.1.15,2013-02-14 01:24:00,
2013-02-13 20:29:00,35.2,33.1,29.66,North,0,0.0,0.0,92,0.00,,,0.21,Wunderground v.1.15,2013-02-14 01:29:00,
2013-02-13 20:35:00,35.0,32.9,29.66,North,0,0.0,2.0,92,0.00,,,0.22,Wunderground v.1.15,2013-02-14 01:35:00,
2013-02-13 20:40:00,34.9,32.8,29.66,North,0,0.0,0.0,92,0.00,,,0.22,Wunderground v.1.15,2013-02-14 01:40:00,
2013-02-13 20:46:00,34.7,32.6,29.67,North,357,0.0,0.0,92,0.00,,,0.22,Wunderground v.1.15,2013-02-14 01:46:00,
2013-02-13 20:51:00,34.6,32.8,29.67,NNW,340,0.0,0.0,93,0.00,,,0.22,Wunderground v.1.15,2013-02-14 01:51:00,
2013-02-13 20:57:00,34.6,32.8,29.67,NNW,329,0.0,1.0,93,0.00,,,0.22,Wunderground v.1.15,2013-02-14 01:57:00,
2013-02-13 21:02:00,34.6,32.8,29.68,NNW,329,0.0,0.0,93,0.00,,,0.22,Wunderground v.1.15,2013-02-14 02:02:00,
2013-02-13 21:08:00,34.6,32.8,29.68,NNW,342,0.0,1.0,93,0.00,,,0.22,Wunderground v.1.15,2013-02-14 02:08:00,
2013-02-13 21:13:00,34.6,32.8,29.68,NNW,329,0.0,1.0,93,0.00,,,0.23,Wunderground v.1.15,2013-02-14 02:13:00,
2013-02-13 21:18:00,34.6,32.8,29.68,NW,311,0.0,2.0,93,0.00,,,0.23,Wunderground v.1.15,2013-02-14 02:18:00,
2013-02-13 21:24:00,34.4,32.6,29.68,NW,322,1.0,1.0,93,0.00,,,0.23,Wunderground v.1.15,2013-02-14 02:24:00,
2013-02-13 21:29:00,34.3,32.5,29.68,WNW,302,1.0,1.0,93,0.00,,,0.24,Wunderground v.1.15,2013-02-14 02:29:00,
2013-02-13 21:34:00,34.3,32.5,29.69,WNW,294,0.0,2.0,93,0.00,,,0.24,Wunderground v.1.15,2013-02-14 02:34:00,
2013-02-13 21:39:00,34.3,32.8,29.69,NW,318,1.0,2.0,94,0.00,,,0.24,Wunderground v.1.15,2013-02-14 02:39:00,
2013-02-13 21:44:00,34.1,32.6,29.70,WNW,299,1.0,6.0,94,0.00,,,0.24,Wunderground v.1.15,2013-02-14 02:44:00,
2013-02-13 21:50:00,34.1,32.6,29.70,WNW,295,1.0,1.0,94,0.00,,,0.25,Wunderground v.1.15,2013-02-14 02:50:00,
2013-02-13 21:55:00,34.0,32.5,29.70,NW,308,1.0,6.0,94,0.00,,,0.25,Wunderground v.1.15,2013-02-14 02:55:00,
2013-02-13 22:00:00,34.0,32.5,29.71,NW,313,2.0,2.0,94,0.00,,,0.25,Wunderground v.1.15,2013-02-14 03:00:00,
2013-02-13 22:07:00,34.0,32.5,29.71,NW,313,1.0,2.0,94,0.00,,,0.25,Wunderground v.1.15,2013-02-14 03:07:00,
2013-02-13 22:12:00,34.0,32.5,29.71,NNE,20,1.0,1.0,94,0.00,,,0.25,Wunderground v.1.15,2013-02-14 03:12:00,
2013-02-13 22:18:00,34.1,32.8,29.70,North,0,1.0,1.0,95,0.00,,,0.25,Wunderground v.1.15,2013-02-14 03:18:00,
2013-02-13 22:23:00,34.1,32.8,29.70,North,0,0.0,1.0,95,0.00,,,0.25,Wunderground v.1.15,2013-02-14 03:23:00,
2013-02-13 22:28:00,34.1,32.8,29.70,NNE,16,0.0,2.0,95,0.00,,,0.25,Wunderground v.1.15,2013-02-14 03:28:00,
2013-02-13 22:33:00,34.1,32.8,29.70,North,10,1.0,2.0,95,0.00,,,0.25,Wunderground v.1.15,2013-02-14 03:33:00,
2013-02-13 22:38:00,34.1,32.8,29.70,North,353,0.0,2.0,95,0.00,,,0.25,Wunderground v.1.15,2013-02-14 03:38:00,
2013-02-13 22:43:00,34.1,32.8,29.70,North,350,1.0,2.0,95,0.00,,,0.25,Wunderground v.1.15,2013-02-14 03:43:00,
2013-02-13 22:49:00,34.3,33.0,29.72,North,6,1.0,2.0,95,0.00,,,0.25,Wunderground v.1.15,2013-02-14 03:49:00,
2013-02-13 22:54:00,34.3,33.0,29.72,WNW,289,1.0,1.0,95,0.00,,,0.25,Wunderground v.1.15,2013-02-14 03:54:00,
2013-02-13 22:59:00,34.3,33.0,29.73,WNW,291,1.0,1.0,95,0.00,,,0.25,Wunderground v.1.15,2013-02-14 03:59:00,
2013-02-13 23:05:00,34.3,33.0,29.73,West,261,1.0,6.0,95,0.00,,,0.25,Wunderground v.1.15,2013-02-14 04:05:00,
2013-02-13 23:10:00,34.4,33.1,29.73,NNW,329,1.0,1.0,95,0.00,,,0.25,Wunderground v.1.15,2013-02-14 04:10:00,
2013-02-13 23:15:00,34.4,33.1,29.72,NNW,329,0.0,1.0,95,0.00,,,0.25,Wunderground v.1.15,2013-02-14 04:15:00,
2013-02-13 23:21:00,34.4,33.1,29.72,WNW,301,0.0,2.0,95,0.00,,,0.25,Wunderground v.1.15,2013-02-14 04:21:00,
2013-02-13 23:27:00,34.4,33.4,29.72,NW,319,1.0,2.0,96,0.00,,,0.25,Wunderground v.1.15,2013-02-14 04:27:00,
2013-02-13 23:32:00,34.4,33.4,29.72,NNW,340,1.0,6.0,96,0.00,,,0.25,Wunderground v.1.15,2013-02-14 04:32:00,
2013-02-13 23:37:00,34.4,33.4,29.72,West,281,1.0,6.0,96,0.00,,,0.25,Wunderground v.1.15,2013-02-14 04:37:00,
2013-02-13 23:42:00,34.4,33.4,29.72,NW,320,0.0,6.0,96,0.00,,,0.25,Wunderground v.1.15,2013-02-14 04:42:00,
2013-02-13 23:47:00,34.4,33.4,29.73,NNW,329,1.0,6.0,96,0.00,,,0.25,Wunderground v.1.15,2013-02-14 04:47:00,
2013-02-13 23:52:00,34.4,33.4,29.73,NNW,329,1.0,6.0,96,0.00,,,0.25,Wunderground v.1.15,2013-02-14 04:52:00,
2013-02-13 23:57:00,34.3,33.3,29.73,NW,319,1.0,6.0,96,0.00,,,0.25,Wunderground v.1.15,2013-02-14 04:57:00,